Flag for Chile Weather past 2 weeks in Antofagasta, Chile

Now
68 °F

Partly cloudy.


Feels Like: 68 °F
Forecast: 67 / 77 °F
Wind: 10 mph from South

Location: Antofagasta Airport

Current Time: Feb 1, 2015 at 10:21:25 PM

Latest Report: Feb 1, 2015 at 10:00 PM


Visibility: N/A

Pressure: 29.89 "Hg

Humidity: 78%

Dew point: 61 °F

Location of AntofagastaLocation

Historic Weather in Antofagasta — Graph

°F

Antofagasta temperature yesterday

Maximum temperature yesterday: 72 °F (at 12:00 PM)
Minimum temperature yesterday: 64 °F (at 4:00 AM)
Average temperature yesterday: 68 °F

Past Weeks' High & Low Weather Summary

 TemperatureHumidityPressure
High75 °F (Jan 27, 12:00 PM)88% (Jan 20, 3:00 AM)30.07 "Hg (Jan 20, 3:00 AM)
Low61 °F (Jan 20, 5:00 AM)47% (Jan 19, 1:00 PM)29.80 "Hg (Jan 26, 5:00 PM)
Average68 °F71%29.92 "Hg
* Reported Jan 17 9:00 PM — Feb 1 9:00 PM, Antofagasta, Weather by CustomWeather, © 2014

Note: Actual official high and low records may vary slightly from our data, if they occured in-between our weather recording intervals... More about our weather records

Advertising

Antofagasta weather history for previous 24 hours

 ConditionsComfort  
Time TempWeatherWind HumidityBarometerVisibility
9:00 PM
Feb 1
68 °FPartly cloudy.12 mph78%29.86 "HgN/A
8:00 PM70 °FPartly sunny.15 mph73%29.83 "HgN/A
7:00 PM70 °FScattered clouds.15 mph73%29.83 "HgN/A
6:00 PM70 °FScattered clouds.17 mph73%29.83 "HgN/A
5:00 PM72 °FBroken clouds.20 mph69%29.83 "HgN/A
4:00 PM72 °FScattered clouds.17 mph69%29.86 "HgN/A
3:00 PM72 °FScattered clouds.16 mph69%29.86 "HgN/A
2:00 PM72 °FScattered clouds.15 mph61%29.89 "HgN/A
1:00 PM73 °FScattered clouds.14 mph57%29.89 "HgN/A
12:00 PM73 °FScattered clouds.9 mph61%29.92 "HgN/A
11:00 AM72 °FScattered clouds.7 mph65%29.92 "HgN/A
10:00 AM70 °FScattered clouds.5 mph69%29.92 "HgN/A
9:00 AM68 °FPartly sunny.5 mph73%29.92 "HgN/A
8:00 AM66 °FOvercast.7 mph78%29.89 "HgN/A
7:00 AM66 °FOvercast.6 mph78%29.89 "HgN/A
6:00 AM66 °FOvercast.6 mph83%29.89 "HgN/A
5:00 AM66 °FOvercast.5 mph78%29.89 "HgN/A
4:00 AM66 °FOvercast.3 mph83%29.89 "HgN/A
3:00 AM66 °FPassing clouds.2 mph83%29.89 "HgN/A
2:00 AM66 °FPassing clouds.2 mph83%29.92 "HgN/A
1:00 AM66 °FPassing clouds.1 mph83%29.92 "HgN/A
12:00 AM68 °FClear.7 mph78%29.92 "Hg10 mi
11:00 PM
Jan 31
68 °FOvercast.8 mph78%29.95 "HgN/A
10:00 PM68 °FPassing clouds.7 mph78%29.92 "HgN/A
Weather by CustomWeather, © 2014

See weather overviewHow to use our weather pages